Latest Weather Observations for Tindal

IDD60801

Issued at 1:01 pm CST Tuesday 30 June 2015 (issued every 30 minutes, with the page automatically refreshed every 10 minutes)

About weather observations | Map of weather stations | Latest weather observations for NT | Other Formats
Station Details ID: 014932 Name: TINDAL RAAF Lat: -14.52 Lon: 132.38 Height: 133.6 m
Data from the previous 72 hours. | See also: Recent months at Tindal
Date/Time
CST
Temp
°C
App
Temp
°C
Dew
Point
Rel
Hum
%
Delta-T
°C
Wind Press
QNH
hPa
Press
MSL
hPa
Rain
since 9 am
mm
Dir
 
Spd
km/h
Gust
km/h
Spd
kts
Gust
kts
30/01:00pm 30.5 27.2 9.4 27 11.9 E 17 26 9 14 1016.8 - 0.0
30/12:30pm 29.3 26.6 8.9 28 11.3 S 13 19 7 10 1017.4 - 0.0
30/12:00pm 29.5 25.5 9.1 28 11.4 S 20 24 11 13 1017.8 1017.2 0.0
30/11:30am 28.6 25.1 8.8 29 11.0 ESE 17 24 9 13 1018.2 - 0.0
30/11:00am 27.8 25.7 9.6 32 10.1 ESE 11 20 6 11 1018.6 - 0.0
30/10:30am 26.0 24.7 9.8 36 9.0 ESE 7 13 4 7 1018.9 - 0.0
30/10:00am 24.5 23.2 10.0 40 8.0 SE 7 13 4 7 1019.1 - 0.0
30/09:30am 22.2 20.7 10.7 48 6.4 SE 9 11 5 6 1019.2 - 0.0
30/09:00am 20.1 17.6 9.7 51 5.6 SE 13 17 7 9 1019.3 1018.7 0.0
30/08:30am 17.4 16.0 9.6 60 4.1 SE 7 9 4 5 1019.1 - 0.0
30/08:00am 14.1 13.9 10.3 78 2.0 SE 2 7 1 4 1018.8 - 0.0
30/07:30am 11.8 11.5 8.6 81 1.6 CALM 0 0 0 0 1018.3 - 0.0
30/07:00am 12.1 10.5 8.8 80 1.7 SE 7 13 4 7 1018.1 - 0.0
30/06:30am 13.2 12.2 8.9 75 2.2 ESE 4 7 2 4 1017.9 - 0.0
30/06:00am 12.9 11.4 9.0 77 2.0 ESE 7 11 4 6 1017.7 1017.1 0.0
30/05:30am 12.7 11.2 9.0 78 1.9 SE 7 9 4 5 1017.4 - 0.0
30/05:00am 13.6 13.1 9.3 75 2.2 SE 2 7 1 4 1017.1 - 0.0
30/04:30am 14.3 12.8 9.1 71 2.7 SE 7 11 4 6 1017.2 - 0.0
30/04:00am 14.9 13.0 9.1 68 3.0 SE 9 13 5 7 1017.2 - 0.0
30/03:30am 15.2 13.3 9.1 67 3.1 SE 9 11 5 6 1017.3 - 0.0
30/03:00am 15.9 14.4 9.3 65 3.4 SSE 7 11 4 6 1017.2 1016.6 0.0
30/02:30am 15.5 13.4 9.6 68 3.1 SSE 11 13 6 7 1017.4 - 0.0
30/02:00am 16.6 14.0 9.5 63 3.7 SE 13 15 7 8 1017.8 - 0.0
30/01:30am 15.0 14.7 10.0 72 2.6 SE 2 13 1 7 1017.9 - 0.0
30/01:00am 16.2 15.1 10.1 67 3.2 SE 6 7 3 4 1017.6 - 0.0
30/12:30am 16.7 15.6 10.1 65 3.5 ESE 6 7 3 4 1017.7 - 0.0
30/12:00am 16.7 15.1 10.3 66 3.4 SE 9 11 5 6 1017.9 1017.3 0.0
 
Date/Time
CST
Temp
°C
App
Temp
°C
Dew
Point
Rel
Hum
%
Delta-T
°C
Wind Press
QNH
hPa
Press
MSL
hPa
Rain
since 9 am
mm
Dir
 
Spd
km/h
Gust
km/h
Spd
kts
Gust
kts
29/11:30pm 17.0 15.5 10.6 66 3.4 SE 9 9 5 5 1017.8 - 0.0
29/11:00pm 16.9 15.4 10.7 67 3.3 SE 9 11 5 6 1017.9 - 0.0
29/10:30pm 17.1 15.7 10.9 67 3.3 SE 9 9 5 5 1017.9 - 0.0
29/10:00pm 17.3 15.9 10.9 66 3.5 SE 9 11 5 6 1017.8 - 0.0
29/09:30pm 17.4 16.5 11.2 67 3.4 SE 7 9 4 5 1017.7 - 0.0
29/09:00pm 17.8 16.8 11.1 65 3.6 SE 7 9 4 5 1017.6 1017.0 0.0
29/08:30pm 19.1 18.2 11.2 60 4.3 SE 7 9 4 5 1017.3 - 0.0
29/08:00pm 19.9 19.2 11.4 58 4.7 SE 6 7 3 4 1016.8 - 0.0
29/07:30pm 21.3 20.3 11.1 52 5.7 S 7 9 4 5 1016.5 - 0.0
29/07:00pm 23.1 22.0 10.5 45 7.0 S 7 9 4 5 1016.0 - 0.0
29/06:30pm 26.2 24.7 9.1 34 9.4 ESE 7 9 4 5 1015.6 - 0.0
29/06:00pm 27.2 25.3 9.1 32 10.0 E 9 13 5 7 1015.3 1014.8 0.0
29/05:30pm 28.8 25.6 8.5 28 11.2 ESE 15 17 8 9 1015.1 - 0.0
29/05:00pm 29.6 26.1 8.6 27 11.6 E 17 19 9 10 1015.1 - 0.0
29/04:30pm 29.7 25.7 8.2 26 11.8 ESE 19 24 10 13 1015.0 - 0.0
29/04:00pm 29.9 26.1 8.9 27 11.7 SE 19 28 10 15 1015.0 - 0.0
29/03:30pm 30.0 26.8 8.4 26 12.0 E 15 20 8 11 1015.1 - 0.0
29/03:00pm 29.6 27.0 9.2 28 11.4 SE 13 20 7 11 1015.4 1014.9 0.0
29/02:30pm 30.1 27.3 8.5 26 12.0 ENE 13 20 7 11 1015.7 - 0.0
29/02:00pm 30.0 26.7 9.5 28 11.6 E 17 28 9 15 1016.3 - 0.0
29/01:30pm 28.9 25.0 9.6 30 10.8 ESE 20 33 11 18 1016.8 - 0.0
29/01:00pm 29.4 26.4 10.5 31 10.8 E 17 26 9 14 1017.4 - 0.0
29/12:30pm 28.9 24.7 9.6 30 10.8 ESE 22 32 12 17 1017.9 - 0.0
29/12:00pm 28.2 24.2 10.4 33 10.1 ENE 22 30 12 16 1018.3 1017.7 0.0
29/11:30am 28.0 25.4 10.7 34 9.9 E 15 26 8 14 1018.6 - 0.0
29/11:00am 26.8 24.1 10.5 36 9.2 ESE 15 24 8 13 1019.0 - 0.0
29/10:30am 25.7 23.7 10.3 38 8.6 ESE 11 15 6 8 1019.3 - 0.0
29/10:00am 24.4 20.9 11.0 43 7.5 E 20 26 11 14 1019.4 - 0.0
29/09:30am 22.6 20.7 9.0 42 7.3 ESE 9 13 5 7 1019.7 - 0.0
29/09:00am 20.3 18.4 8.9 48 6.0 SE 9 13 5 7 1019.8 1019.3 0.0
29/08:30am 17.5 15.1 8.6 56 4.6 SE 11 13 6 7 1019.5 - 0.0
29/08:00am 14.9 13.1 9.5 70 2.8 SE 9 11 5 6 1019.4 - 0.0
29/07:30am 12.1 10.1 8.6 79 1.7 SE 9 11 5 6 1018.9 - 0.0
29/07:00am 11.7 9.2 8.4 80 1.6 SSE 11 15 6 8 1018.6 - 0.0
29/06:30am 12.6 11.1 8.5 76 2.1 SE 6 7 3 4 1018.4 - 0.0
29/06:00am 12.6 10.6 8.5 76 2.0 SSE 9 13 5 7 1018.3 1017.7 0.0
29/05:30am 12.7 10.3 8.8 77 2.0 SSE 11 13 6 7 1018.1 - 0.0
29/05:00am 11.9 9.9 8.7 81 1.6 SE 9 11 5 6 1017.9 - 0.0
29/04:30am 11.9 9.2 8.9 82 1.5 SE 13 15 7 8 1017.9 - 0.0
29/04:00am 13.6 11.7 8.9 73 2.4 SSE 9 9 5 5 1017.8 - 0.0
29/03:30am 12.9 10.7 9.2 78 1.9 SE 11 13 6 7 1017.8 - 0.0
29/03:00am 13.9 11.2 8.9 72 2.5 SSE 13 15 7 8 1017.8 1017.2 0.0
29/02:30am 15.5 14.0 9.2 66 3.3 SSE 7 9 4 5 1018.1 - 0.0
29/02:00am 15.1 12.8 9.0 67 3.1 SSE 11 11 6 6 1018.2 - 0.0
29/01:30am 16.3 14.4 9.0 62 3.8 SE 9 9 5 5 1018.4 - 0.0
29/01:00am 18.4 16.4 8.7 53 5.1 ESE 9 11 5 6 1018.6 - 0.0
29/12:30am 19.3 16.6 8.9 51 5.5 ESE 13 17 7 9 1018.4 - 0.0
29/12:00am 17.9 15.3 9.3 57 4.5 ESE 13 19 7 10 1018.6 1018.0 0.0
 
Date/Time
CST
Temp
°C
App
Temp
°C
Dew
Point
Rel
Hum
%
Delta-T
°C
Wind Press
QNH
hPa
Press
MSL
hPa
Rain
since 9 am
mm
Dir
 
Spd
km/h
Gust
km/h
Spd
kts
Gust
kts
28/11:30pm 17.3 14.7 9.5 60 4.1 SE 13 15 7 8 1018.7 - 0.0
28/11:00pm 16.7 14.7 10.1 65 3.5 SE 11 15 6 8 1018.7 - 0.0
28/10:30pm 16.2 14.3 10.5 69 3.0 SE 11 13 6 7 1018.6 - 0.0
28/10:00pm 16.9 15.1 10.7 67 3.3 SSE 11 13 6 7 1018.7 - 0.0
28/09:30pm 17.3 15.5 10.9 66 3.5 SSE 11 15 6 8 1018.8 - 0.0
28/09:00pm 17.9 16.1 11.0 64 3.7 SSE 11 13 6 7 1018.6 1018.0 0.0
28/08:30pm 17.7 15.9 11.0 65 3.6 SSE 11 15 6 8 1018.4 - 0.0
28/08:00pm 18.7 17.4 11.3 62 4.1 SSE 9 9 5 5 1018.2 - 0.0
28/07:30pm 20.1 19.2 11.3 57 4.9 SE 7 9 4 5 1017.8 - 0.0
28/07:00pm 21.0 20.2 11.6 55 5.3 SE 7 11 4 6 1017.5 - 0.0
28/06:30pm 24.4 23.2 10.3 41 7.8 E 7 9 4 5 1017.3 - 0.0
28/06:00pm 27.3 25.3 8.7 31 10.2 E 9 13 5 7 1017.0 1016.4 0.0
28/05:30pm 28.3 25.4 8.1 28 11.0 ESE 13 15 7 8 1016.8 - 0.0
28/05:00pm 29.2 26.5 8.8 28 11.3 ENE 13 22 7 12 1016.6 - 0.0
28/04:30pm 29.3 26.5 8.4 27 11.5 E 13 20 7 11 1016.5 - 0.0
28/04:00pm 29.7 26.2 8.7 27 11.7 E 17 24 9 13 1016.5 - 0.0
28/03:30pm 29.6 27.0 9.2 28 11.4 ENE 13 20 7 11 1016.5 - 0.0
28/03:00pm 29.4 26.0 9.0 28 11.4 E 17 26 9 14 1016.7 1016.1 0.0
28/02:30pm 28.8 25.5 9.5 30 10.8 ENE 17 26 9 14 1017.1 - 0.0
28/02:00pm 28.6 24.5 8.8 29 11.0 ESE 20 24 11 13 1017.5 - 0.0
28/01:30pm 28.5 24.6 8.7 29 10.9 ENE 19 28 10 15 1017.9 - 0.0
28/01:00pm 27.7 23.6 8.6 30 10.5 ESE 20 26 11 14 1018.4 - 0.0
28/12:30pm 27.6 23.2 9.0 31 10.3 ESE 22 32 12 17 1019.0 - 0.0
28/12:00pm 27.1 23.3 9.9 34 9.6 ESE 20 26 11 14 1019.5 1019.0 0.0
28/11:30am 26.5 23.0 10.2 36 9.1 E 19 30 10 16 1020.1 - 0.0
28/11:00am 24.7 22.2 9.8 39 8.2 E 13 22 7 12 1020.5 - 0.0
28/10:30am 23.4 20.5 8.3 38 8.1 E 13 20 7 11 1020.9 - 0.0
28/10:00am 22.0 19.1 6.7 37 7.9 E 11 17 6 9 1021.2 - 0.0
28/09:30am 20.1 17.7 6.8 42 6.8 ESE 9 11 5 6 1021.3 - 0.0
28/09:00am 17.5 15.0 6.4 48 5.5 ESE 9 13 5 7 1021.4 1020.9 0.0
28/08:30am 15.7 13.5 6.4 54 4.6 ESE 7 11 4 6 1021.2 - 0.0
28/08:00am 12.8 10.8 7.0 68 2.8 SE 7 9 4 5 1021.0 - 0.0
28/07:30am 11.0 9.8 6.6 74 2.1 SE 2 6 1 3 1020.6 - 0.0
28/07:00am 10.2 8.0 6.4 77 1.8 SE 7 9 4 5 1020.4 - 0.0
28/06:30am 10.3 7.7 6.3 76 1.9 SSE 9 11 5 6 1020.1 - 0.0
28/06:00am 10.5 8.5 6.3 75 2.0 SE 6 7 3 4 1019.8 1019.3 0.0
28/05:30am 11.5 9.3 6.2 70 2.5 SE 7 9 4 5 1019.7 - 0.0
28/05:00am 11.7 9.5 6.4 70 2.5 SE 7 9 4 5 1019.6 - 0.0
28/04:30am 11.8 9.2 6.3 69 2.6 ESE 9 11 5 6 1019.6 - 0.0
28/04:00am 12.2 10.0 6.3 67 2.8 SE 7 9 4 5 1019.4 - 0.0
28/03:30am 12.4 10.2 6.2 66 3.0 SSE 7 9 4 5 1019.4 - 0.0
28/03:00am 11.3 8.4 6.4 72 2.3 SSE 11 13 6 7 1019.4 1018.8 0.0
28/02:30am 11.9 9.0 6.4 69 2.6 SSE 11 13 6 7 1019.3 - 0.0
28/02:00am 11.7 8.8 6.4 70 2.5 SSE 11 13 6 7 1019.4 - 0.0
28/01:30am 12.3 9.0 6.6 68 2.7 SSE 13 15 7 8 1019.5 - 0.0
28/01:00am 13.2 11.0 6.3 63 3.3 SE 7 7 4 4 1019.5 - 0.0
28/12:30am 12.9 10.8 6.5 65 3.1 SE 7 9 4 5 1019.5 - 0.0
28/12:00am 12.9 10.4 6.5 65 3.1 SSE 9 13 5 7 1019.7 1019.2 0.0
 
Date/Time
CST
Temp
°C
App
Temp
°C
Dew
Point
Rel
Hum
%
Delta-T
°C
Wind Press
QNH
hPa
Press
MSL
hPa
Rain
since 9 am
mm
Dir
 
Spd
km/h
Gust
km/h
Spd
kts
Gust
kts
27/11:30pm 13.5 11.4 6.6 63 3.3 SE 7 7 4 4 1019.8 - 0.0
27/11:00pm 13.2 10.7 6.5 64 3.2 SE 9 11 5 6 1019.9 - 0.0
27/10:30pm 14.2 12.1 6.6 60 3.7 SE 7 11 4 6 1019.9 - 0.0
27/10:00pm 14.6 12.5 6.7 59 3.9 SE 7 9 4 5 1019.8 - 0.0
27/09:30pm 14.6 12.1 6.7 59 3.9 SE 9 11 5 6 1019.5 - 0.0
27/09:00pm 15.5 13.2 7.3 58 4.1 ESE 9 11 5 6 1019.4 1018.8 0.0
27/08:30pm 15.7 13.1 7.7 59 4.0 SSE 11 13 6 7 1019.0 - 0.0
27/08:00pm 16.6 14.7 7.5 55 4.6 E 7 9 4 5 1018.6 - 0.0
27/07:30pm 18.4 16.7 8.4 52 5.2 E 7 7 4 4 1018.4 - 0.0
27/07:00pm 19.5 17.6 7.6 46 6.1 ESE 7 9 4 5 1018.0 - 0.0
27/06:30pm 22.8 20.1 5.7 33 8.7 ESE 9 11 5 6 1017.6 - 0.0
27/06:00pm 24.6 21.4 4.9 28 9.9 SE 11 13 6 7 1017.4 1016.8 0.0
27/05:30pm 26.5 22.7 3.7 23 11.4 SE 13 15 7 8 1017.0 - 0.0
27/05:00pm 27.1 22.6 4.2 23 11.6 ESE 17 20 9 11 1016.8 - 0.0
27/04:30pm 27.9 24.3 4.9 23 11.9 SE 13 17 7 9 1016.7 - 0.0
27/04:00pm 27.8 23.8 4.8 23 11.8 SE 15 20 8 11 1016.7 - 0.0
27/03:30pm 27.9 24.7 4.9 23 11.9 ESE 11 22 6 12 1016.7 - 0.0
27/03:00pm 28.2 24.5 4.5 22 12.1 E 13 22 7 12 1016.9 1016.3 0.0
27/02:30pm 27.9 24.0 5.5 24 11.7 ESE 15 20 8 11 1017.2 - 0.0
27/02:00pm 27.8 22.8 4.8 23 11.8 E 20 26 11 14 1017.6 - 0.0
27/01:30pm 27.4 22.2 5.6 25 11.4 E 22 30 12 16 1018.1 - 0.0

Other Formats:

Comma delimited format used in spreadsheet applications
http://www.bom.gov.au/fwo/IDD60801/IDD60801.94131.axf

JavaScript Object Notation format (JSON) in row-major order
http://www.bom.gov.au/fwo/IDD60801/IDD60801.94131.json